• En España
  • Lista de países
  • Para 7 días
  • Temperatura del agua
  • Mapa Satelital
  • El tiempo en el mapa
  • Informadores
  • user-avatar
    Iniciar sesión

    Tiempo cada hora Mazunino

    Hoy, 15 Agosto, Miércoles

    Tiempo Temperatura Precipitaciones Viento Presión Humedad
    00:00 +14°C° 0 mm 2 mps 744 mmHg 92%
    01:00 +13°C° 0 mm 2 mps 744 mmHg 94%
    02:00 +13°C° 0 mm 2 mps 744 mmHg 95%
    03:00 +12°C° 0 mm 2 mps 745 mmHg 95%
    04:00 +12°C° 0 mm 2 mps 745 mmHg 96%
    05:00 +13°C° 0 mm 2 mps 745 mmHg 93%
    06:00 +13°C° 0 mm 2 mps 745 mmHg 91%
    07:00 +13°C° 0 mm 3 mps 746 mmHg 88%
    08:00 +16°C° 0 mm 3 mps 746 mmHg 80%
    09:00 +17°C° 0 mm 3 mps 746 mmHg 73%
    10:00 +19°C° 0 mm 4 mps 746 mmHg 65%
    11:00 +20°C° 0 mm 4 mps 746 mmHg 61%
    12:00 +21°C° 0 mm 4 mps 746 mmHg 58%
    13:00 +22°C° 0 mm 4 mps 746 mmHg 54%
    14:00 +22°C° 0 mm 4 mps 746 mmHg 55%
    15:00 +22°C° 0 mm 4 mps 746 mmHg 55%
    16:00 +22°C° 0 mm 4 mps 746 mmHg 55%
    17:00 +21°C° 0 mm 3 mps 747 mmHg 61%
    18:00 +20°C° 0 mm 3 mps 747 mmHg 68%
    19:00 +18°C° 0 mm 2 mps 747 mmHg 74%
    20:00 +17°C° 0 mm 2 mps 747 mmHg 78%
    21:00 +16°C° 0 mm 2 mps 747 mmHg 81%
    22:00 +15°C° 0 mm 2 mps 748 mmHg 85%
    23:00 +14°C° 0 mm 2 mps 748 mmHg 87%

    Mañana, 16 Agosto, Jueves

    Tiempo Temperatura Precipitaciones Viento Presión Humedad
    00:00 +14°C° 0 mm 2 mps 748 mmHg 89%
    01:00 +13°C° 0 mm 2 mps 748 mmHg 91%
    02:00 +13°C° 0 mm 2 mps 748 mmHg 91%
    03:00 +13°C° 0 mm 2 mps 748 mmHg 92%
    04:00 +12°C° 0 mm 2 mps 748 mmHg 93%
    05:00 +13°C° 0 mm 2 mps 748 mmHg 90%
    06:00 +14°C° 0 mm 2 mps 747 mmHg 87%
    07:00 +14°C° 0 mm 3 mps 747 mmHg 83%
    08:00 +17°C° 0,1 mm 4 mps 747 mmHg 79%
    09:00 +17°C° 0,1 mm 5 mps 746 mmHg 75%
    10:00 +19°C° 0,1 mm 5 mps 746 mmHg 71%
    11:00 +19°C° 0,7 mm 5 mps 745 mmHg 76%
    12:00 +19°C° 0,7 mm 5 mps 745 mmHg 81%
    13:00 +17°C° 0,7 mm 5 mps 744 mmHg 86%
    14:00 +19°C° 0,4 mm 5 mps 744 mmHg 86%
    15:00 +20°C° 0,4 mm 5 mps 744 mmHg 86%
    16:00 +20°C° 0,4 mm 5 mps 744 mmHg 87%
    17:00 +20°C° 0,8 mm 4 mps 744 mmHg 89%
    18:00 +20°C° 0,8 mm 4 mps 743 mmHg 91%
    19:00 +19°C° 0,8 mm 3 mps 743 mmHg 93%
    20:00 +18°C° 0,1 mm 3 mps 743 mmHg 94%
    21:00 +18°C° 0,1 mm 3 mps 744 mmHg 96%
    22:00 +17°C° 0,1 mm 3 mps 744 mmHg 97%
    23:00 +16°C° 0 mm 3 mps 744 mmHg 97%

    Pasado mañana, 17 Agosto, Viernes

    Tiempo Temperatura Precipitaciones Viento Presión Humedad
    00:00 +14°C° 0 mm 3 mps 744 mmHg 97%
    01:00 +14°C° 0 mm 3 mps 744 mmHg 97%
    02:00 +13°C° 0 mm 3 mps 745 mmHg 97%
    03:00 +13°C° 0 mm 3 mps 745 mmHg 97%
    04:00 +12°C° 0 mm 3 mps 745 mmHg 96%
    05:00 +12°C° 0 mm 3 mps 746 mmHg 96%
    06:00 +12°C° 0 mm 3 mps 746 mmHg 95%
    07:00 +12°C° 0 mm 3 mps 746 mmHg 95%
    08:00 +14°C° 0 mm 3 mps 746 mmHg 89%
    09:00 +16°C° 0 mm 3 mps 747 mmHg 83%
    10:00 +18°C° 0 mm 3 mps 747 mmHg 77%
    11:00 +19°C° 0 mm 3 mps 747 mmHg 71%
    12:00 +20°C° 0 mm 3 mps 747 mmHg 66%
    13:00 +20°C° 0 mm 3 mps 747 mmHg 60%
    14:00 +20°C° 0,2 mm 4 mps 747 mmHg 61%
    15:00 +20°C° 0,2 mm 4 mps 747 mmHg 62%
    16:00 +20°C° 0,2 mm 4 mps 747 mmHg 62%
    17:00 +19°C° 0,1 mm 3 mps 747 mmHg 68%
    18:00 +18°C° 0,1 mm 3 mps 747 mmHg 73%
    19:00 +16°C° 0,1 mm 2 mps 748 mmHg 79%
    20:00 +15°C° 0 mm 2 mps 748 mmHg 81%
    21:00 +13°C° 0 mm 3 mps 748 mmHg 84%
    22:00 +11°C° 0 mm 3 mps 748 mmHg 87%
    23:00 +11°C° 0 mm 3 mps 749 mmHg 89%

    18 Agosto, Sábado

    Tiempo Temperatura Precipitaciones Viento Presión Humedad
    00:00 +10°C° 0 mm 3 mps 749 mmHg 91%
    01:00 +10°C° 0 mm 2 mps 749 mmHg 93%
    02:00 +9°C° 0 mm 3 mps 749 mmHg 93%
    03:00 +9°C° 0 mm 3 mps 749 mmHg 94%
    04:00 +8°C° 0 mm 3 mps 750 mmHg 94%
    05:00 +9°C° 0 mm 3 mps 750 mmHg 91%
    06:00 +8°C° 0 mm 4 mps 750 mmHg 88%
    07:00 +10°C° 0 mm 4 mps 751 mmHg 85%
    08:00 +11°C° 0 mm 4 mps 751 mmHg 78%
    09:00 +12°C° 0 mm 4 mps 751 mmHg 70%
    10:00 +14°C° 0 mm 5 mps 751 mmHg 63%
    11:00 +15°C° 0 mm 5 mps 751 mmHg 60%
    12:00 +15°C° 0 mm 5 mps 750 mmHg 57%
    13:00 +16°C° 0 mm 5 mps 750 mmHg 55%
    14:00 +16°C° 0 mm 5 mps 751 mmHg 55%
    15:00 +16°C° 0 mm 5 mps 751 mmHg 56%
    16:00 +16°C° 0 mm 5 mps 751 mmHg 57%
    17:00 +15°C° 0 mm 4 mps 751 mmHg 62%
    18:00 +14°C° 0 mm 3 mps 751 mmHg 67%
    19:00 +13°C° 0 mm 3 mps 751 mmHg 73%
    20:00 +12°C° 0 mm 3 mps 752 mmHg 77%
    21:00 +11°C° 0 mm 3 mps 752 mmHg 82%
    22:00 +9°C° 0 mm 2 mps 752 mmHg 86%
    23:00 +9°C° 0 mm 2 mps 752 mmHg 89%

    19 Agosto, Domingo

    Tiempo Temperatura Precipitaciones Viento Presión Humedad
    00:00 +9°C° 0 mm 2 mps 752 mmHg 91%
    01:00 +8°C° 0 mm 2 mps 752 mmHg 93%
    02:00 +8°C° 0 mm 2 mps 753 mmHg 93%
    03:00 +7°C° 0 mm 2 mps 753 mmHg 94%
    04:00 +7°C° 0 mm 2 mps 753 mmHg 95%
    05:00 +8°C° 0 mm 2 mps 753 mmHg 91%
    06:00 +9°C° 0 mm 2 mps 754 mmHg 87%
    07:00 +10°C° 0 mm 2 mps 754 mmHg 83%
    08:00 +12°C° 0 mm 2 mps 754 mmHg 75%
    09:00 +14°C° 0 mm 2 mps 754 mmHg 67%
    10:00 +16°C° 0 mm 3 mps 753 mmHg 59%
    11:00 +17°C° 0 mm 3 mps 753 mmHg 56%
    12:00 +18°C° 0 mm 2 mps 753 mmHg 53%
    13:00 +19°C° 0 mm 2 mps 753 mmHg 49%
    14:00 +19°C° 0 mm 2 mps 753 mmHg 49%
    15:00 +19°C° 0 mm 2 mps 752 mmHg 49%
    16:00 +19°C° 0 mm 2 mps 752 mmHg 49%
    17:00 +18°C° 0 mm 2 mps 752 mmHg 56%
    18:00 +16°C° 0 mm 2 mps 752 mmHg 63%
    19:00 +15°C° 0 mm 1 mps 752 mmHg 70%
    20:00 +14°C° 0 mm 1 mps 752 mmHg 73%
    21:00 +12°C° 0 mm 1 mps 752 mmHg 75%
    22:00 +11°C° 0 mm 1 mps 752 mmHg 78%
    23:00 +11°C° 0 mm 1 mps 752 mmHg 79%

    20 Agosto, Lunes

    Tiempo Temperatura Precipitaciones Viento Presión Humedad
    00:00 +10°C° 0 mm 1 mps 752 mmHg 81%
    01:00 +10°C° 0 mm 1 mps 752 mmHg 82%
    02:00 +9°C° 0 mm 1 mps 752 mmHg 83%
    03:00 +9°C° 0 mm 1 mps 752 mmHg 84%
    04:00 +9°C° 0 mm 1 mps 752 mmHg 85%
    05:00 +10°C° 0 mm 1 mps 752 mmHg 81%
    06:00 +11°C° 0 mm 1 mps 752 mmHg 78%
    07:00 +12°C° 0 mm 1 mps 752 mmHg 75%
    08:00 +14°C° 0 mm 1 mps 752 mmHg 69%
    09:00 +16°C° 0 mm 1 mps 752 mmHg 63%
    10:00 +19°C° 0 mm 1 mps 751 mmHg 57%
    11:00 +20°C° 0 mm 1 mps 751 mmHg 54%
    12:00 +21°C° 0 mm 1 mps 751 mmHg 51%
    13:00 +22°C° 0 mm 1 mps 751 mmHg 48%
    14:00 +22°C° 0 mm 1 mps 750 mmHg 48%
    15:00 +22°C° 0 mm 1 mps 750 mmHg 47%
    16:00 +23°C° 0 mm 1 mps 750 mmHg 47%
    17:00 +21°C° 0 mm 1 mps 750 mmHg 54%
    18:00 +19°C° 0 mm 1 mps 750 mmHg 60%
    19:00 +18°C° 0 mm 1 mps 749 mmHg 67%
    20:00 +16°C° 0 mm 1 mps 749 mmHg 70%
    21:00 +14°C° 0 mm 1 mps 749 mmHg 73%
    22:00 +13°C° 0 mm 1 mps 749 mmHg 76%
    23:00 +12°C° 0 mm 1 mps 749 mmHg 78%
    Mostrar más